CW4141 Weather Reports


Display with metric or nautical units.
time (UTC)temp
F
wind
direction
speed
MPH
gust
MPH
rain 1hr
in
rain 24hr
in
rain mn
in
humidity
%
barometer
mb
20260905020056 77 170 1.0 5.0 0.00 0.00 0.00 21 1013.4
20260905020017 77 171 1.0 5.0 0.00 0.00 0.00 22 1009.9
20260905014557 78 226 1.0 6.0 0.00 0.00 0.00 21 1013.4
20260905014516 78 225 2.0 6.0 0.00 0.00 0.00 21 1010.0
20260905013059 79 221 2.0 7.0 0.00 0.00 0.00 19 1013.4
20260905013015 79 145 2.0 7.0 0.00 0.00 0.00 20 1010.0
20260905011601 80 143 1.0 7.0 0.00 0.00 0.00 20 1013.5
20260905011516 80 137 1.0 5.0 0.00 0.00 0.00 20 1010.0
20260905010100 80 194 2.0 5.0 0.00 0.00 0.00 19 1013.4
20260905010013 80 213 1.0 5.0 0.00 0.00 0.00 20 1010.0
20260905004601 81 180 1.0 7.0 0.00 0.00 0.00 20 1013.5
20260905004515 81 179 1.0 7.0 0.00 0.00 0.00 20 1010.0
20260905003100 81 211 2.0 8.0 0.00 0.00 0.00 19 1013.5
20260905003026 81 223 2.0 7.0 0.00 0.00 0.00 20 1009.9
20260905001600 82 214 2.0 7.0 0.00 0.00 0.00 19 1013.4
20260905001512 82 214 1.0 7.0 0.00 0.00 0.00 19 1009.8
20260905000058 83 164 2.0 7.0 0.00 0.00 0.00 22 1013.2
20260905000013 83 165 2.0 7.0 0.00 0.00 0.00 23 1009.6
20260904234556 84 0 1.0 8.0 0.00 0.00 0.00 21 1013.3
20260904234511 84 202 1.0 8.0 0.00 0.00 0.00 21 1009.5
20260904233104 84 209 1.0 6.0 0.00 0.00 0.00 23 1013.3
20260904233009 84 208 1.0 6.0 0.00 0.00 0.00 24 1009.6
20260904231557 85 212 2.0 7.0 0.00 0.00 0.00 24 1013.3
20260904231512 85 212 3.0 7.0 0.00 0.00 0.00 25 1009.6
20260904230058 86 195 1.0 9.0 0.00 0.00 0.00 26 1013.2
20260904230016 86 194 1.0 9.0 0.00 0.00 0.00 26 1009.6
20260904224558 86 239 1.0 8.0 0.00 0.00 0.00 28 1013.3
20260904224505 86 240 1.0 7.0 0.00 0.00 0.00 28 1009.8
20260904223109 88 207 2.0 7.0 0.00 0.00 0.00 27 1013.3
20260904223005 88 207 2.0 7.0 0.00 0.00 0.00 27 1010.0
20260904221605 88 209 1.0 8.0 0.00 0.00 0.00 29 1013.4
20260904221503 88 215 1.0 7.0 0.00 0.00 0.00 30 1010.0
20260904220002 88 207 1.0 6.0 0.00 0.00 0.00 29 1010.0
20260904214609 89 200 1.0 5.0 0.00 0.00 0.00 28 1013.5
20260904214502 89 200 1.0 5.0 0.00 0.00 0.00 29 1010.1
20260904213101 88 188 1.0 9.0 0.00 0.00 0.00 28 1013.7
20260904213002 88 188 1.0 7.0 0.00 0.00 0.00 28 1010.1
20260904211605 89 198 1.0 7.0 0.00 0.00 0.00 29 1013.8
20260904211500 89 198 1.0 6.0 0.00 0.00 0.00 29 1010.2
20260904210104 89 146 0.0 7.0 0.00 0.00 0.00 28 1013.8
20260904210100 89 146 0.0 6.0 0.00 0.00 0.00 28 1010.2
20260904204608 88 0 1.0 6.0 0.00 0.00 0.00 27 1013.9
20260904204558 88 194 1.0 7.0 0.00 0.00 0.00 28 1010.3
20260904203102 88 0 0.0 5.0 0.00 0.00 0.00 29 1013.9
20260904203056 88 192 0.0 5.0 0.00 0.00 0.00 29 1010.3
20260904201604 87 164 0.0 5.0 0.00 0.00 0.00 30 1013.9
20260904201557 87 164 0.0 4.0 0.00 0.00 0.00 30 1010.5
20260904200100 86 0 0.0 5.0 0.00 0.00 0.00 31 1014.0
20260904200059 86 183 0.0 5.0 0.00 0.00 0.00 32 1010.5
20260904194559 85 198 0.0 3.0 0.00 0.00 0.00 31 1014.1
20260904194549 85 198 1.0 4.0 0.00 0.00 0.00 32 1010.8
20260904193101 84 202 0.0 8.0 0.00 0.00 0.00 36 1014.2
20260904193043 84 202 0.0 4.0 0.00 0.00 0.00 37 1011.0
20260904191600 83 222 0.0 6.0 0.00 0.00 0.00 38 1014.6
20260904191540 83 222 1.0 5.0 0.00 0.00 0.00 39 1011.1
20260904190059 82 0 1.0 4.0 0.00 0.00 0.00 39 1014.9
20260904190037 82 198 1.0 4.0 0.00 0.00 0.00 40 1011.4
20260904184607 81 0 0.0 4.0 0.00 0.00 0.00 43 1014.9
20260904184600 81 194 0.0 4.0 0.00 0.00 0.00 43 1011.5
20260904183101 80 194 0.0 5.0 0.00 0.00 0.00 47 1015.1
20260904183035 80 194 0.0 5.0 0.00 0.00 0.00 47 1011.5
20260904181557 78 0 0.0 6.0 0.00 0.00 0.00 49 1015.0
20260904181528 78 202 0.0 5.0 0.00 0.00 0.00 49 1011.6
20260904180108 77 134 0.0 5.0 0.00 0.00 0.00 48 1015.1
20260904180024 77 134 0.0 5.0 0.00 0.00 0.00 48 1011.5
20260904174608 76 0 1.0 4.0 0.00 0.00 0.00 55 1015.3
20260904174528 76 132 1.0 4.0 0.00 0.00 0.00 56 1011.7
20260904173105 74 132 0.0 2.0 0.00 0.00 0.00 62 1015.3
20260904173013 74 132 0.0 2.0 0.00 0.00 0.00 63 1011.7
20260904171601 71 0 0.0 2.0 0.00 0.00 0.00 69 1015.4
20260904171507 71 132 0.0 2.0 0.00 0.00 0.00 71 1011.7
20260904170110 68 0 0.0 2.0 0.00 0.00 0.00 81 1015.3
20260904170004 68 132 0.0 2.0 0.00 0.00 0.00 82 1011.6
20260904164606 65 0 0.0 1.0 0.00 0.00 0.00 90 1015.1
20260904164600 65 132 0.0 1.0 0.00 0.00 0.00 90 1011.6
20260904163112 63 0 0.0 1.0 0.00 0.00 0.00 92 1015.1
20260904163057 63 132 0.0 1.0 0.00 0.00 0.00 92 1011.5
20260904161604 61 132 0.0 2.0 0.00 0.00 0.00 93 1011.2
20260904161602 61 0 0.0 2.0 0.00 0.00 0.00 92 1015.0
20260904160056 60 0 0.0 2.0 0.00 0.00 0.00 92 1014.9
20260904160049 60 132 0.0 2.0 0.00 0.00 0.00 93 1011.2
20260904154556 60 0 0.0 1.0 0.00 0.00 0.00 92 1014.9
20260904154548 60 132 0.0 1.0 0.00 0.00 0.00 93 1011.2
20260904153106 60 0 0.0 1.0 0.00 0.00 0.00 92 1014.8
20260904153047 60 132 0.0 1.0 0.00 0.00 0.00 93 1011.1
20260904151557 60 0 0.0 1.0 0.00 0.00 0.00 92 1014.7
20260904151541 60 132 0.0 1.0 0.00 0.00 0.00 93 1011.1
20260904150105 59 0 0.0 1.0 0.00 0.00 0.00 92 1014.8
20260904150040 59 132 0.0 0.0 0.00 0.00 0.00 93 1011.1
20260904144603 59 0 0.0 1.0 0.00 0.00 0.00 92 1014.7
20260904144537 59 132 0.0 1.0 0.00 0.00 0.00 93 1011.1
20260904143100 59 0 0.0 0.0 0.00 0.00 0.00 92 1014.6
20260904143035 59 132 0.0 0.0 0.00 0.00 0.00 93 1011.1
20260904141614 59 0 0.0 0.0 0.00 0.00 0.00 92 1014.6
20260904141533 59 132 0.0 0.0 0.00 0.00 0.00 93 1011.0
20260904140106 59 0 0.0 1.0 0.00 0.00 0.00 92 1014.4
20260904140032 58 132 0.0 1.0 0.00 0.00 0.00 92 1010.8
20260904134605 59 132 0.0 0.0 0.00 0.00 0.00 92 1014.2
20260904134528 59 132 0.0 2.0 0.00 0.00 0.00 92 1010.6
20260904133100 59 0 0.0 1.0 0.00 0.00 0.00 92 1014.1
20260904133028 59 132 0.0 1.0 0.00 0.00 0.00 92 1010.6
20260904131626 59 0 0.0 1.0 0.00 0.00 0.00 92 1014.1
20260904131526 59 132 0.0 1.0 0.00 0.00 0.00 92 1010.6
20260904130105 59 132 0.0 3.0 0.00 0.00 0.00 91 1013.9
20260904130026 59 132 1.0 2.0 0.00 0.00 0.00 92 1010.5
20260904124602 58 132 0.0 2.0 0.00 0.00 0.00 91 1013.8
20260904124528 58 132 0.0 2.0 0.00 0.00 0.00 91 1010.4
20260904123110 58 0 0.0 3.0 0.00 0.00 0.00 91 1013.9
20260904123025 58 132 0.0 2.0 0.00 0.00 0.00 91 1010.3
20260904121559 58 132 0.0 3.0 0.00 0.00 0.00 90 1013.9
20260904121525 58 132 0.0 2.0 0.00 0.00 0.00 90 1010.5
20260904120106 57 0 0.0 3.0 0.00 0.00 0.00 89 1014.0
20260904120028 57 132 0.0 3.0 0.00 0.00 0.00 90 1010.6
20260904114603 56 0 0.0 1.0 0.00 0.00 0.00 87 1014.0
20260904114523 56 132 0.0 1.0 0.00 0.00 0.00 87 1010.6
20260904113057 56 0 0.0 0.0 0.00 0.00 0.00 86 1014.1
20260904113028 56 132 0.0 0.0 0.00 0.00 0.00 86 1010.5
20260904111600 56 0 0.0 0.0 0.00 0.00 0.00 85 1014.1
20260904111519 56 132 0.0 0.0 0.00 0.00 0.00 86 1010.3
20260904110106 57 0 0.0 0.0 0.00 0.00 0.00 85 1014.0
20260904110018 57 132 0.0 0.0 0.00 0.00 0.00 86 1010.1
20260904104601 57 0 0.0 0.0 0.00 0.00 0.00 85 1013.8
20260904104521 57 132 0.0 0.0 0.00 0.00 0.00 86 1010.1
20260904103108 57 0 0.0 0.0 0.00 0.00 0.00 85 1013.7
20260904103015 57 132 0.0 0.0 0.00 0.00 0.00 85 1010.0
20260904101604 58 0 0.0 0.0 0.00 0.00 0.00 85 1013.7
20260904101515 58 132 0.0 0.0 0.00 0.00 0.00 85 1010.0
20260904100057 58 0 0.0 0.0 0.00 0.00 0.00 85 1013.8
20260904100015 58 132 0.0 0.0 0.00 0.00 0.00 85 1010.0
20260904094557 58 0 0.0 0.0 0.00 0.00 0.00 85 1013.7
20260904094513 58 132 0.0 0.0 0.00 0.00 0.00 85 1010.0
20260904093109 59 0 0.0 0.0 0.00 0.00 0.00 85 1013.7
20260904093025 59 132 0.0 0.0 0.00 0.00 0.00 85 1010.1
20260904091559 59 0 0.0 0.0 0.00 0.00 0.00 85 1013.6
20260904091507 59 132 0.0 0.0 0.00 0.00 0.00 86 1010.0
20260904090057 60 0 0.0 0.0 0.00 0.00 0.00 85 1013.6
20260904090005 60 132 0.0 0.0 0.00 0.00 0.00 86 1010.1
20260904084604 60 0 0.0 0.0 0.00 0.00 0.00 85 1013.7
20260904084504 60 132 0.0 0.0 0.00 0.00 0.00 86 1010.1
20260904083102 60 0 0.0 0.0 0.00 0.00 0.00 85 1013.8
20260904083002 60 132 0.0 0.0 0.00 0.00 0.00 85 1010.2
20260904081559 60 0 0.0 0.0 0.00 0.00 0.00 85 1013.9
20260904081504 60 132 0.0 0.0 0.00 0.00 0.00 85 1010.4
20260904080110 61 0 0.0 1.0 0.00 0.00 0.00 85 1014.0
20260904080100 61 132 0.0 1.0 0.00 0.00 0.00 85 1010.6
20260904074636 61 0 0.0 0.0 0.00 0.00 0.00 84 1014.1
20260904074558 61 132 0.0 0.0 0.00 0.00 0.00 84 1010.5
20260904073101 61 0 0.0 0.0 0.00 0.00 0.00 84 1014.1
20260904071601 62 0 0.0 0.0 0.00 0.00 0.00 83 1014.1
20260904071559 62 132 0.0 0.0 0.00 0.00 0.00 84 1010.5
20260904070059 62 0 0.0 0.0 0.00 0.00 0.00 82 1014.0
20260904070053 62 132 0.0 0.0 0.00 0.00 0.00 83 1010.4
20260904064604 62 0 0.0 0.0 0.00 0.00 0.00 81 1014.0
20260904064553 62 132 0.0 0.0 0.00 0.00 0.00 82 1010.2
20260904063111 62 0 0.0 0.0 0.00 0.00 0.00 81 1014.0
20260904063054 62 132 0.0 0.0 0.00 0.00 0.00 82 1010.2
20260904061602 62 0 0.0 2.0 0.00 0.00 0.00 81 1014.0
20260904061600 62 132 0.0 0.0 0.00 0.00 0.00 82 1010.2
20260904060113 63 0 0.0 0.0 0.00 0.00 0.00 80 1014.0
20260904060052 63 132 0.0 0.0 0.00 0.00 0.00 81 1010.3
20260904054556 63 132 0.0 1.0 0.00 0.00 0.00 80 1010.5
20260904053122 63 132 0.0 1.0 0.00 0.00 0.00 78 1010.5
20260904053101 63 0 0.0 1.0 0.00 0.00 0.00 78 1014.1
20260904051558 64 0 0.0 1.0 0.00 0.00 0.00 77 1014.2
20260904051555 64 132 0.0 1.0 0.00 0.00 0.00 78 1010.6
20260904050057 64 0 0.0 2.0 0.00 0.00 0.00 76 1014.4
20260904050051 64 132 0.0 2.0 0.00 0.00 0.00 77 1010.6
20260904044555 65 0 0.0 2.0 0.00 0.00 0.00 75 1014.2
20260904044552 65 132 0.0 2.0 0.00 0.00 0.00 75 1010.6
20260904043100 65 132 0.0 2.0 0.00 0.00 0.00 72 1014.2
20260904043051 65 132 0.0 2.0 0.00 0.00 0.00 72 1010.6
20260904041559 66 132 0.0 3.0 0.00 0.00 0.00 70 1014.1
20260904040059 66 0 0.0 3.0 0.00 0.00 0.00 68 1013.8
20260904040048 66 132 0.0 3.0 0.00 0.00 0.00 68 1010.1
20260904034615 67 0 0.0 3.0 0.00 0.00 0.00 65 1013.5
20260904034548 67 132 0.0 3.0 0.00 0.00 0.00 65 1010.0
20260904033100 67 132 1.0 3.0 0.00 0.00 0.00 62 1013.5
20260904031557 68 0 0.0 3.0 0.00 0.00 0.00 63 1013.3
20260904031546 68 132 0.0 3.0 0.00 0.00 0.00 64 1009.5
20260904030055 68 146 0.0 5.0 0.00 0.00 0.00 61 1013.1
20260904030046 68 146 1.0 4.0 0.00 0.00 0.00 62 1009.4
20260904024602 69 186 1.0 4.0 0.00 0.00 0.00 58 1013.0
20260904024546 69 186 0.0 3.0 0.00 0.00 0.00 59 1009.2
20260904023107 70 184 1.0 5.0 0.00 0.00 0.00 56 1013.0
20260904023048 70 184 1.0 5.0 0.00 0.00 0.00 56 1009.1
20260904021557 71 0 1.0 3.0 0.00 0.00 0.00 53 1012.8
20260904021545 71 184 0.0 3.0 0.00 0.00 0.00 53 1009.1